Regional Weather Roundup
Issued by NWS

Home | Current Version | Previous Version | Graphics & Text | Print | Product List | Glossary On
Versions: 1 2 3 4 5 6 7 8 9 10 11 12 13 14 15 16 17 18 19 20 21 22 23 24 25 26 27 28 29 30 31 32 33 34 35 36 37 38 39 40 41 42 43 44 45 46 47 48 49 50
000
ASUS43 KIND 111909
RWRIN

WEATHER ROUNDUP FOR INDIANA
NATIONAL WEATHER SERVICE INDIANAPOLIS IN
300 PM EDT FRI JUL 11 2014

NOTE: "FAIR" INDICATES FEW OR NO CLOUDS BELOW 12,000 FEET WITH NO
SIGNIFICANT WEATHER AND/OR OBSTRUCTIONS TO VISIBILITY.

* - STATION DOES NOT REPORT WEATHER SUCH AS PRECIPITATION OR FOG.

+ - STATION NOT QUALITY CONTROLLED BY THE NATIONAL WEATHER SERVICE.
    USE DATA WITH CAUTION...ESPECIALLY DEWPOINT AND RELATIVE
    HUMIDITY OBSERVATIONS.

INZ001>003-010>013-019-020-112000-
NORTHWEST INDIANA

CITY           SKY/WX    TMP DP  RH WIND       PRES   REMARKS
GARY /AIRPORT/ MOSUNNY   81  50  34 SE8       30.18F
KNOX *+        SUNNY     79  54  41 S8        30.18F
LA PORTE +     MOSUNNY   78  53  41 SE5       30.20F
MONTICELLO +   SUNNY     78  58  49 SE7       30.18F
RENSSELAER +   SUNNY     79  55  44 SE10      30.19S
VALPARAISO     SUNNY     78  53  41 SW6       30.19F

$$

LMZ046-743>745-112000-
SOUTHERN LAKE MICHIGAN

STATION/POSITION TIME  TEMP WIND        PRES
                       AIR  DIR/SP/G
                 (UTC) (F)  (DEG/KT/KT) (MB)
BURNS HARBOR     1900   80  170/  4/ 12 1022.4S
MICHIGAN CITY    1900   76  330/  6/  7   N/A

$$

INZ004-005-014>016-021>024-112000-
NORTH CENTRAL INDIANA

CITY           SKY/WX    TMP DP  RH WIND       PRES   REMARKS
GOSHEN         SUNNY     80  56  43 SE3       30.19F
LOGANSPORT +   SUNNY     79  54  41 CALM      30.20F
PERU/GRISSOM   MOSUNNY   80  58  45 S9        30.20F
ROCHESTER +    SUNNY     82  52  34 SW5       30.20F
SOUTH BEND     MOSUNNY   80  55  42 S5        30.20F
WARSAW +       SUNNY     79  54  41 S6        30.20F

$$

INZ006>009-017-018-025>027-112000-
NORTHEAST INDIANA

CITY           SKY/WX    TMP DP  RH WIND       PRES   REMARKS
ANGOLA *+      SUNNY     81  57  44 S7        30.21F
AUBURN +       SUNNY     79  52  38 S5        30.22F
FORT WAYNE     PTSUNNY   79  55  43 S6        30.21F
HUNTINGTON +   SUNNY     78  55  45 CALM      30.20F

$$

INZ028-029-035-036-043>045-051>053-112000-
WEST CENTRAL INDIANA

CITY           SKY/WX    TMP DP  RH WIND       PRES   REMARKS
GREENCASTLE +  SUNNY     79  57  47 CALM      30.21S
LAFAYETTE      MOSUNNY   79  54  41 VRB3      30.18F
TERRE HAUTE    SUNNY     81  59  47 VRB7      30.18F

$$

INZ030>032-037>040-046>048-054>057-064-065-112000-
CENTRAL INDIANA

CITY           SKY/WX    TMP DP  RH WIND       PRES   REMARKS
ANDERSON       MOSUNNY   81  54  39 S12       30.22F
CP ATTERBURY + PTSUNNY   82  54  36 S5        30.20F
COLUMBUS       MOSUNNY   82  55  39 CALM      30.20F
INDIANAPOLIS   MOSUNNY   79  54  41 VRB5      30.19F
-EAGLE CREEK   SUNNY     80  54  40 SW7       30.19F
KOKOMO *+      SUNNY     81  54  39 SW3       30.20F
MARION +       SUNNY     78  51  39 W3        30.21F
MT COMFORT *+  SUNNY     81  57  44 SE6       30.21F
SHELBYVILLE    MOSUNNY   83  59  44 VRB5      30.20F
ZIONSVILLE +   MOSUNNY   80  53  38 CALM      30.21F

$$

INZ033-034-041-042-049-050-058-059-112000-
EAST CENTRAL INDIANA

CITY           SKY/WX    TMP DP  RH WIND       PRES   REMARKS
MUNCIE         SUNNY     78  52  40 VRB3      30.21F

$$

INZ060-061-067>069-081>083-085>088-112000-
SOUTHWEST INDIANA

CITY           SKY/WX    TMP DP  RH WIND       PRES   REMARKS
EVANSVILLE     SUNNY     85  57  38 CALM      30.17F
HUNTINGBURG *+ SUNNY     84  59  42 SE5       30.18F
WASHINGTON +   SUNNY     83  59  45 S3        30.18F

$$

INZ062-063-066-070>080-084-089>092-112000-
SOUTH CENTRAL AND SOUTHEAST INDIANA

CITY           SKY/WX    TMP DP  RH WIND       PRES   REMARKS
BEDFORD +      SUNNY     82  48  30 CALM      30.19
BLOOMINGTON    MOSUNNY   82  55  39 S8        30.20F

$$




USA.gov is the U.S. government's official web portal to all federal, state and local government web resources and services.